Location: Arbon
(43.0005°N, 0.7472°E)
Time: 15:38:44
(UTC+00:00)

Altair - All Passes

Search period start: 26 November 2020 00:00
Search period end: 06 December 2020 00:00
Orbit: 1502 x 1682 km, 47.2° (Epoch: 25 November)

Date Brightness Start Highest point End Pass type
(mag) Time Alt. Az. Time Alt. Az. Time Alt. Az.
26 Nov - 02:04:13 10° WNW 02:13:27 89° NNE 02:22:49 10° ESE visible
26 Nov - 04:09:13 10° WNW 04:17:33 40° SW 04:26:05 10° SSE visible
26 Nov - 19:26:04 10° SSW 19:34:05 33° SE 19:41:56 10° ENE visible
26 Nov - 21:28:36 10° WSW 21:37:56 83° SSE 21:47:08 10° ENE visible
26 Nov - 23:33:49 10° W 23:43:01 68° N 23:52:12 10° E night (unlit)
27 Nov - 01:39:02 10° WNW 01:48:17 86° NNE 01:57:37 10° ESE visible
27 Nov - 03:43:59 10° WNW 03:52:28 43° SW 04:01:08 10° SSE visible
27 Nov - 19:01:14 10° S 19:09:01 30° SE 19:16:39 10° ENE visible
27 Nov - 21:03:26 10° SW 21:12:47 79° SSE 21:21:58 10° ENE visible
27 Nov - 23:08:34 10° W 23:17:47 69° N 23:26:59 10° ENE night (unlit)
28 Nov - 01:13:52 10° WNW 01:23:06 83° NNE 01:32:25 10° ESE visible
28 Nov - 03:18:46 10° WNW 03:27:23 47° SW 03:36:10 10° SSE visible
28 Nov - 05:27:32 10° WSW 05:30:18 12° WSW 05:33:04 10° SW visible
28 Nov - 18:36:27 10° S 18:43:58 28° SE 18:51:19 10° ENE visible
28 Nov - 20:38:17 10° SW 20:47:38 75° SSE 20:56:47 10° ENE visible
28 Nov - 22:43:20 10° W 22:52:35 70° N 23:01:46 10° ENE visible
29 Nov - 00:48:41 10° WNW 00:57:55 80° NNE 01:07:12 10° ESE visible
29 Nov - 02:53:35 10° WNW 03:02:18 50° SW 03:11:10 10° SSE visible
29 Nov - 05:01:22 10° W 05:05:17 13° WSW 05:09:15 10° SSW visible
29 Nov - 18:11:43 10° S 18:18:56 25° SE 18:25:59 10° E visible
29 Nov - 20:13:09 10° SW 20:22:29 71° SSE 20:31:37 10° ENE visible
29 Nov - 22:18:05 10° W 22:27:22 71° N 22:36:33 10° ENE visible
30 Nov - 00:23:29 10° WNW 00:32:43 78° NNE 00:41:59 10° ESE night (unlit)
30 Nov - 02:28:23 10° WNW 02:37:11 54° SW 02:46:09 10° SE visible
30 Nov - 04:35:32 10° W 04:40:17 15° SW 04:45:05 10° SSW visible
30 Nov - 17:47:01 10° S 17:53:53 23° SE 18:00:35 10° E visible
30 Nov - 19:48:02 10° SW 19:57:21 67° SSE 20:06:27 10° ENE visible
30 Nov - 21:52:50 10° W 22:02:10 72° N 22:11:20 10° ENE visible
30 Nov - 23:58:17 10° WNW 00:07:31 76° NNE 00:16:46 10° E night (unlit)
01 Dec - 02:03:11 10° WNW 02:12:06 58° SW 02:21:07 10° SE visible
01 Dec - 04:09:53 10° W 04:15:16 17° SW 04:20:44 10° SSW visible
01 Dec - 17:22:24 10° S 17:28:51 21° SE 17:35:09 10° E visible
01 Dec - 19:22:56 10° SW 19:32:13 64° SE 19:41:16 10° ENE visible
01 Dec - 21:27:36 10° W 21:36:57 73° NNW 21:46:08 10° ENE visible
01 Dec - 23:33:04 10° WNW 23:42:19 74° NNE 23:51:33 10° E night (unlit)
02 Dec - 01:38:00 10° WNW 01:46:59 62° SW 01:56:03 10° SE visible
02 Dec - 03:44:19 10° W 03:50:15 19° SW 03:56:16 10° SSW visible
02 Dec - 16:57:51 10° SSE 17:03:48 19° SE 17:09:39 10° E visible
02 Dec - 18:57:50 10° SW 19:07:06 60° SE 19:16:07 10° ENE visible
02 Dec - 21:02:21 10° W 21:11:44 75° NNW 21:20:58 10° ENE visible
02 Dec - 23:07:52 10° WNW 23:17:07 72° N 23:26:19 10° E night (unlit)
03 Dec - 01:12:49 10° WNW 01:21:52 66° SSW 01:30:59 10° SE night (unlit)
03 Dec - 03:18:51 10° W 03:25:14 21° SW 03:31:42 10° S visible
03 Dec - 16:33:25 10° SSE 16:38:47 17° SE 16:44:05 10° E daylight
03 Dec - 18:32:46 10° SW 18:41:59 56° SE 18:50:56 10° ENE visible
03 Dec - 20:37:06 10° WSW 20:46:32 77° NNW 20:55:46 10° ENE visible
03 Dec - 22:42:38 10° WNW 22:51:55 71° N 23:01:06 10° E visible
04 Dec - 00:47:38 10° WNW 00:56:44 70° SSW 01:05:53 10° SE night (unlit)
04 Dec - 02:53:25 10° W 03:00:12 24° SW 03:07:03 10° S visible
04 Dec - 16:09:06 10° SSE 16:13:46 15° SE 16:18:21 10° E daylight
04 Dec - 18:07:43 10° SW 18:16:52 52° SE 18:25:44 10° ENE visible
04 Dec - 20:11:52 10° WSW 20:21:20 79° NNW 20:30:35 10° ENE visible
04 Dec - 22:17:25 10° WNW 22:26:42 70° N 22:35:52 10° E visible
05 Dec - 00:22:27 10° WNW 00:31:36 74° SSW 00:40:47 10° SE night (unlit)
05 Dec - 02:28:03 10° WNW 02:35:10 26° SW 02:42:21 10° S night (unlit)
05 Dec - 15:45:01 10° SSE 15:48:45 13° ESE 15:52:26 10° E daylight
05 Dec - 17:42:42 10° SSW 17:51:46 49° SE 18:00:33 10° ENE visible
05 Dec - 19:46:38 10° WSW 19:56:08 82° NNW 20:05:25 10° ENE visible
05 Dec - 21:52:10 10° WNW 22:01:29 69° N 22:10:39 10° E visible
